Time,TemperatureF,DewpointF,PressureIn,WindDirection,WindDirectionDegrees,WindSpeedMPH,WindSpeedGustMPH,Humidity,HourlyPrecipIn,Conditions,Clouds,dailyrainin,SoftwareType,DateUTC
2013-09-09 00:01:00,72.3,68.6,29.92,WNW,294,0.0,0.0,88,0.00,,---,0.00,VWS V14.00,2013-09-09 05:01:00,
2013-09-09 00:06:00,72.3,68.6,29.92,WNW,294,0.0,0.0,88,0.00,,---,0.00,VWS V14.00,2013-09-09 05:06:00,
2013-09-09 00:11:00,72.1,68.3,29.92,WNW,294,0.0,0.0,88,0.00,,---,0.00,VWS V14.00,2013-09-09 05:11:00,
2013-09-09 00:16:00,72.1,68.7,29.92,WNW,294,0.0,0.0,89,0.00,,---,0.00,VWS V14.00,2013-09-09 05:16:00,
2013-09-09 00:21:00,72.1,68.7,29.92,WNW,294,0.0,0.0,89,0.00,,---,0.00,VWS V14.00,2013-09-09 05:21:00,
2013-09-09 00:26:00,72.1,68.7,29.92,WNW,294,0.0,0.0,89,0.00,,---,0.00,VWS V14.00,2013-09-09 05:26:00,
2013-09-09 00:31:00,72.1,68.7,29.92,WNW,294,0.0,0.0,89,0.00,,---,0.00,VWS V14.00,2013-09-09 05:31:00,
2013-09-09 00:36:00,72.0,68.6,29.92,WNW,294,0.0,0.0,89,0.00,,---,0.00,VWS V14.00,2013-09-09 05:36:00,
2013-09-09 00:41:00,72.0,68.6,29.92,WNW,294,0.0,0.0,89,0.00,,---,0.00,VWS V14.00,2013-09-09 05:41:00,
2013-09-09 00:46:00,71.8,68.4,29.92,WNW,294,0.0,0.0,89,0.00,,---,0.00,VWS V14.00,2013-09-09 05:46:00,
2013-09-09 00:51:00,71.8,68.4,29.92,WNW,294,0.0,0.0,89,0.00,,---,0.00,VWS V14.00,2013-09-09 05:51:00,
2013-09-09 00:56:00,71.6,68.2,29.92,WNW,294,0.0,0.0,89,0.00,,---,0.00,VWS V14.00,2013-09-09 05:56:00,
2013-09-09 01:01:00,71.6,68.2,29.92,WNW,294,0.0,0.0,89,0.00,,---,0.00,VWS V14.00,2013-09-09 06:01:00,
2013-09-09 01:06:00,71.5,68.1,29.92,WNW,294,0.0,0.0,89,0.00,,---,0.00,VWS V14.00,2013-09-09 06:06:00,
2013-09-09 01:11:00,71.5,68.1,29.92,WNW,294,0.0,0.0,89,0.00,,---,0.00,VWS V14.00,2013-09-09 06:11:00,
2013-09-09 01:16:00,71.5,68.1,29.92,WNW,294,0.0,0.0,89,0.00,,---,0.00,VWS V14.00,2013-09-09 06:16:00,
2013-09-09 01:21:00,71.3,67.9,29.92,WNW,294,0.0,0.0,89,0.00,,---,0.00,VWS V14.00,2013-09-09 06:21:00,
2013-09-09 01:26:00,71.1,67.7,29.92,WNW,294,0.0,0.0,89,0.00,,---,0.00,VWS V14.00,2013-09-09 06:26:00,
2013-09-09 01:31:00,70.9,67.8,29.92,WNW,294,0.0,0.0,90,0.00,,---,0.00,VWS V14.00,2013-09-09 06:31:00,
2013-09-09 01:36:00,70.9,67.8,29.92,WNW,294,0.0,0.0,90,0.00,,---,0.00,VWS V14.00,2013-09-09 06:36:00,
2013-09-09 01:41:00,70.9,67.8,29.92,WNW,294,0.0,0.0,90,0.00,,---,0.00,VWS V14.00,2013-09-09 06:41:00,
2013-09-09 01:46:00,70.8,67.7,29.92,WNW,294,0.0,0.0,90,0.00,,---,0.00,VWS V14.00,2013-09-09 06:46:00,
2013-09-09 01:51:00,70.8,67.7,29.92,WNW,294,0.0,0.0,90,0.00,,---,0.00,VWS V14.00,2013-09-09 06:51:00,
2013-09-09 01:56:00,70.8,67.7,29.92,WNW,294,0.0,0.0,90,0.00,,---,0.00,VWS V14.00,2013-09-09 06:56:00,
2013-09-09 02:01:00,70.6,67.5,29.92,WNW,294,0.0,0.0,90,0.00,,---,0.00,VWS V14.00,2013-09-09 07:01:00,
2013-09-09 02:06:00,70.6,67.5,29.92,WNW,294,0.0,0.0,90,0.00,,---,0.00,VWS V14.00,2013-09-09 07:06:00,
2013-09-09 02:11:00,70.6,67.5,29.92,WNW,294,0.0,0.0,90,0.00,,---,0.00,VWS V14.00,2013-09-09 07:11:00,
2013-09-09 02:16:00,70.4,67.7,29.92,WNW,294,0.0,0.0,91,0.00,,---,0.00,VWS V14.00,2013-09-09 07:16:00,
2013-09-09 02:21:00,70.4,67.7,29.92,WNW,294,0.0,0.0,91,0.00,,---,0.00,VWS V14.00,2013-09-09 07:21:00,
2013-09-09 02:26:00,70.3,67.6,29.92,WNW,294,0.0,0.0,91,0.00,,---,0.00,VWS V14.00,2013-09-09 07:26:00,
2013-09-09 02:31:00,70.1,67.4,29.92,WNW,294,0.0,0.0,91,0.00,,---,0.00,VWS V14.00,2013-09-09 07:31:00,
2013-09-09 02:36:00,69.9,67.2,29.92,WNW,294,0.0,0.0,91,0.00,,---,0.00,VWS V14.00,2013-09-09 07:36:00,
2013-09-09 02:41:00,69.8,67.1,29.92,WNW,294,0.0,0.0,91,0.00,,---,0.00,VWS V14.00,2013-09-09 07:41:00,
2013-09-09 02:46:00,69.8,67.1,29.92,WNW,294,0.0,0.0,91,0.00,,---,0.00,VWS V14.00,2013-09-09 07:46:00,
2013-09-09 02:51:00,69.8,67.1,29.92,WNW,294,0.0,0.0,91,0.00,,---,0.00,VWS V14.00,2013-09-09 07:51:00,
2013-09-09 02:56:00,69.8,67.1,29.92,WNW,294,0.0,0.0,91,0.00,,---,0.00,VWS V14.00,2013-09-09 07:56:00,
2013-09-09 03:01:00,69.8,67.1,29.92,WNW,294,0.0,0.0,91,0.00,,---,0.00,VWS V14.00,2013-09-09 08:01:00,
2013-09-09 03:06:00,69.8,67.1,29.92,WNW,294,0.0,0.0,91,0.00,,---,0.00,VWS V14.00,2013-09-09 08:06:00,
2013-09-09 03:11:00,69.8,67.1,29.92,WNW,294,0.0,0.0,91,0.00,,---,0.00,VWS V14.00,2013-09-09 08:11:00,
2013-09-09 03:16:00,69.6,66.9,29.92,WNW,294,0.0,0.0,91,0.00,,---,0.00,VWS V14.00,2013-09-09 08:16:00,
2013-09-09 03:21:00,69.6,66.9,29.93,WNW,294,0.0,0.0,91,0.00,,---,0.00,VWS V14.00,2013-09-09 08:21:00,
2013-09-09 03:26:00,69.4,67.0,29.93,WNW,294,0.0,0.0,92,0.00,,---,0.00,VWS V14.00,2013-09-09 08:26:00,
2013-09-09 03:31:00,69.4,67.0,29.93,WNW,294,0.0,0.0,92,0.00,,---,0.00,VWS V14.00,2013-09-09 08:31:00,
2013-09-09 03:36:00,69.3,66.9,29.93,WNW,294,0.0,0.0,92,0.00,,---,0.00,VWS V14.00,2013-09-09 08:36:00,
2013-09-09 03:41:00,69.3,66.9,29.93,WNW,294,0.0,0.0,92,0.00,,---,0.00,VWS V14.00,2013-09-09 08:41:00,
2013-09-09 03:46:00,69.1,66.7,29.93,WNW,294,0.0,0.0,92,0.00,,---,0.00,VWS V14.00,2013-09-09 08:46:00,
2013-09-09 03:51:00,69.1,66.7,29.93,WNW,294,0.0,0.0,92,0.00,,---,0.00,VWS V14.00,2013-09-09 08:51:00,
2013-09-09 03:56:00,68.9,66.5,29.93,WNW,294,0.0,0.0,92,0.00,,---,0.00,VWS V14.00,2013-09-09 08:56:00,
2013-09-09 04:01:00,68.9,66.5,29.93,WNW,294,0.0,0.0,92,0.00,,---,0.00,VWS V14.00,2013-09-09 09:01:00,
2013-09-09 04:06:00,68.9,66.5,29.93,WNW,294,0.0,0.0,92,0.00,,---,0.00,VWS V14.00,2013-09-09 09:06:00,
2013-09-09 04:11:00,68.9,66.5,29.94,WNW,294,0.0,0.0,92,0.00,,---,0.00,VWS V14.00,2013-09-09 09:11:00,
2013-09-09 04:16:00,68.9,66.5,29.93,WNW,294,0.0,0.0,92,0.00,,---,0.00,VWS V14.00,2013-09-09 09:16:00,
2013-09-09 04:21:00,68.9,66.5,29.93,WNW,294,0.0,0.0,92,0.00,,---,0.00,VWS V14.00,2013-09-09 09:21:00,
2013-09-09 04:26:00,68.9,66.5,29.94,WNW,294,0.0,0.0,92,0.00,,---,0.00,VWS V14.00,2013-09-09 09:26:00,
2013-09-09 04:31:00,68.8,66.4,29.94,WNW,294,0.0,0.0,92,0.00,,---,0.00,VWS V14.00,2013-09-09 09:31:00,
2013-09-09 04:36:00,68.6,66.2,29.94,WNW,294,0.0,0.0,92,0.00,,---,0.00,VWS V14.00,2013-09-09 09:36:00,
2013-09-09 04:41:00,68.3,65.9,29.94,WNW,294,0.0,0.0,92,0.00,,---,0.00,VWS V14.00,2013-09-09 09:41:00,
2013-09-09 04:46:00,68.1,65.7,29.94,WNW,294,0.0,0.0,92,0.00,,---,0.00,VWS V14.00,2013-09-09 09:46:00,
2013-09-09 04:51:00,68.1,65.7,29.94,WNW,294,0.0,0.0,92,0.00,,---,0.00,VWS V14.00,2013-09-09 09:51:00,
2013-09-09 04:56:00,68.1,66.0,29.94,WNW,294,0.0,0.0,93,0.00,,---,0.00,VWS V14.00,2013-09-09 09:56:00,
2013-09-09 05:01:00,68.1,66.0,29.94,WNW,294,0.0,0.0,93,0.00,,---,0.00,VWS V14.00,2013-09-09 10:01:00,
2013-09-09 05:06:00,67.9,65.8,29.94,WNW,294,0.0,0.0,93,0.00,,---,0.00,VWS V14.00,2013-09-09 10:06:00,
2013-09-09 05:11:00,67.9,65.8,29.94,WNW,294,0.0,0.0,93,0.00,,---,0.00,VWS V14.00,2013-09-09 10:11:00,
2013-09-09 05:16:00,67.8,65.7,29.95,WNW,294,0.0,0.0,93,0.00,,---,0.00,VWS V14.00,2013-09-09 10:16:00,
2013-09-09 05:21:00,67.8,65.7,29.95,WNW,294,0.0,0.0,93,0.00,,---,0.00,VWS V14.00,2013-09-09 10:21:00,
2013-09-09 05:26:00,67.8,65.7,29.95,WNW,294,0.0,0.0,93,0.00,,---,0.00,VWS V14.00,2013-09-09 10:26:00,
2013-09-09 05:30:00,67.8,65.7,29.95,WNW,294,0.0,0.0,93,0.00,,---,0.00,VWS V14.00,2013-09-09 10:30:00,
2013-09-09 05:35:00,67.8,65.7,29.94,WNW,294,0.0,0.0,93,0.00,,---,0.00,VWS V14.00,2013-09-09 10:35:00,
2013-09-09 05:40:00,67.8,65.7,29.94,WNW,294,0.0,0.0,93,0.00,,---,0.00,VWS V14.00,2013-09-09 10:40:00,
2013-09-09 05:45:00,67.8,65.7,29.94,WNW,294,0.0,0.0,93,0.00,,---,0.00,VWS V14.00,2013-09-09 10:45:00,
2013-09-09 05:50:00,67.6,65.5,29.95,WNW,294,0.0,0.0,93,0.00,,---,0.00,VWS V14.00,2013-09-09 10:50:00,
2013-09-09 05:55:00,67.4,65.3,29.95,WNW,294,0.0,0.0,93,0.00,,---,0.00,VWS V14.00,2013-09-09 10:55:00,
2013-09-09 06:00:00,67.3,65.2,29.95,WNW,294,0.0,0.0,93,0.00,,---,0.00,VWS V14.00,2013-09-09 11:00:00,
2013-09-09 06:05:00,67.1,65.0,29.95,WNW,294,0.0,0.0,93,0.00,,---,0.00,VWS V14.00,2013-09-09 11:05:00,
2013-09-09 06:10:00,67.1,65.0,29.95,WNW,294,0.0,0.0,93,0.00,,---,0.00,VWS V14.00,2013-09-09 11:10:00,
2013-09-09 06:15:00,67.1,65.0,29.95,WNW,294,0.0,0.0,93,0.00,,---,0.00,VWS V14.00,2013-09-09 11:15:00,
2013-09-09 06:20:00,67.1,65.0,29.95,WNW,294,0.0,0.0,93,0.00,,---,0.00,VWS V14.00,2013-09-09 11:20:00,
2013-09-09 06:25:00,67.1,65.0,29.95,WNW,294,0.0,0.0,93,0.00,,---,0.00,VWS V14.00,2013-09-09 11:25:00,
2013-09-09 06:30:00,66.9,64.8,29.95,WNW,294,0.0,0.0,93,0.00,,---,0.00,VWS V14.00,2013-09-09 11:30:00,
2013-09-09 06:35:00,66.9,64.8,29.96,WNW,294,0.0,0.0,93,0.00,,---,0.00,VWS V14.00,2013-09-09 11:35:00,
2013-09-09 06:40:00,66.8,64.7,29.96,WNW,294,0.0,0.0,93,0.00,,---,0.00,VWS V14.00,2013-09-09 11:40:00,
2013-09-09 06:45:00,66.8,64.7,29.96,WNW,294,0.0,0.0,93,0.00,,---,0.00,VWS V14.00,2013-09-09 11:45:00,
2013-09-09 06:50:00,66.6,64.5,29.96,WNW,294,0.0,0.0,93,0.00,,---,0.00,VWS V14.00,2013-09-09 11:50:00,
2013-09-09 06:55:00,66.6,64.5,29.97,WNW,294,0.0,0.0,93,0.00,,---,0.00,VWS V14.00,2013-09-09 11:55:00,
2013-09-09 07:00:00,66.6,64.5,29.97,WNW,294,0.0,0.0,93,0.00,,---,0.00,VWS V14.00,2013-09-09 12:00:00,
2013-09-09 07:05:00,66.6,64.8,29.97,WNW,294,0.0,0.0,94,0.00,,---,0.00,VWS V14.00,2013-09-09 12:05:00,
2013-09-09 07:10:00,66.6,64.8,29.98,WNW,294,0.0,0.0,94,0.00,,---,0.00,VWS V14.00,2013-09-09 12:10:00,
2013-09-09 07:15:00,66.6,64.8,29.98,WNW,294,0.0,0.0,94,0.00,,---,0.00,VWS V14.00,2013-09-09 12:15:00,
2013-09-09 07:20:00,66.6,64.8,29.98,WNW,294,0.0,0.0,94,0.00,,---,0.00,VWS V14.00,2013-09-09 12:20:00,
2013-09-09 07:25:00,66.6,64.8,29.98,WNW,294,0.0,0.0,94,0.00,,---,0.00,VWS V14.00,2013-09-09 12:25:00,
2013-09-09 07:30:00,66.6,64.8,29.98,WNW,294,0.0,0.0,94,0.00,,---,0.00,VWS V14.00,2013-09-09 12:30:00,
2013-09-09 07:35:00,66.8,65.0,29.99,WNW,294,0.0,0.0,94,0.00,,---,0.00,VWS V14.00,2013-09-09 12:35:00,
2013-09-09 07:40:00,66.9,65.1,29.99,WNW,294,0.0,0.0,94,0.00,,---,0.00,VWS V14.00,2013-09-09 12:40:00,
2013-09-09 07:45:00,67.1,65.3,29.99,WNW,294,0.0,0.0,94,0.00,,---,0.00,VWS V14.00,2013-09-09 12:45:00,
2013-09-09 07:50:00,67.4,65.3,29.99,WNW,294,0.0,0.0,93,0.00,,---,0.00,VWS V14.00,2013-09-09 12:50:00,
2013-09-09 07:55:00,67.8,65.4,29.99,WNW,294,0.0,0.0,92,0.00,,---,0.00,VWS V14.00,2013-09-09 12:55:00,
2013-09-09 08:00:00,68.4,66.0,29.99,WNW,294,0.0,0.0,92,0.00,,---,0.00,VWS V14.00,2013-09-09 13:00:00,
2013-09-09 08:05:00,68.9,66.2,29.99,WNW,294,0.0,0.0,91,0.00,,---,0.00,VWS V14.00,2013-09-09 13:05:00,
2013-09-09 08:10:00,69.6,66.5,29.99,WNW,294,0.0,0.0,90,0.00,,---,0.00,VWS V14.00,2013-09-09 13:10:00,
2013-09-09 08:15:00,70.3,66.9,29.99,WNW,294,0.0,0.0,89,0.00,,---,0.00,VWS V14.00,2013-09-09 13:15:00,
2013-09-09 08:20:00,70.8,67.1,29.99,WNW,294,0.0,0.0,88,0.00,,---,0.00,VWS V14.00,2013-09-09 13:20:00,
2013-09-09 08:25:00,71.3,67.6,29.99,WNW,294,0.0,0.0,88,0.00,,---,0.00,VWS V14.00,2013-09-09 13:25:00,
2013-09-09 08:30:00,71.6,67.2,30.00,WNW,294,0.0,0.0,86,0.00,,---,0.00,VWS V14.00,2013-09-09 13:30:00,
2013-09-09 08:35:00,72.1,67.7,30.00,WNW,294,0.0,0.0,86,0.00,,---,0.00,VWS V14.00,2013-09-09 13:35:00,
2013-09-09 08:40:00,72.8,68.0,30.00,WNW,294,0.0,0.0,85,0.00,,---,0.00,VWS V14.00,2013-09-09 13:40:00,
2013-09-09 08:45:00,73.3,68.5,30.00,WNW,294,0.0,0.0,85,0.00,,---,0.00,VWS V14.00,2013-09-09 13:45:00,
2013-09-09 08:50:00,73.9,68.8,30.00,WNW,294,0.0,0.0,84,0.00,,---,0.00,VWS V14.00,2013-09-09 13:50:00,
2013-09-09 08:55:00,74.0,68.5,30.00,WNW,294,0.0,0.0,83,0.00,,---,0.00,VWS V14.00,2013-09-09 13:55:00,
2013-09-09 09:00:00,74.2,68.7,30.00,WNW,294,0.0,0.0,83,0.00,,---,0.00,VWS V14.00,2013-09-09 14:00:00,
2013-09-09 09:05:00,74.6,68.4,30.00,WNW,294,0.0,0.0,81,0.00,,---,0.00,VWS V14.00,2013-09-09 14:05:00,
2013-09-09 09:10:00,74.9,68.7,30.00,WNW,294,0.0,0.0,81,0.00,,---,0.00,VWS V14.00,2013-09-09 14:10:00,
2013-09-09 09:15:00,75.3,69.1,30.00,WNW,294,0.0,0.0,81,0.00,,---,0.00,VWS V14.00,2013-09-09 14:15:00,
2013-09-09 09:20:00,75.6,69.0,30.00,WNW,294,0.0,0.0,80,0.00,,---,0.00,VWS V14.00,2013-09-09 14:20:00,
2013-09-09 09:25:00,76.0,69.0,30.00,WNW,294,0.0,0.0,79,0.00,,---,0.00,VWS V14.00,2013-09-09 14:25:00,
2013-09-09 09:30:00,76.3,69.3,30.01,WNW,294,0.0,0.0,79,0.00,,---,0.00,VWS V14.00,2013-09-09 14:30:00,
2013-09-09 09:35:00,76.7,69.3,30.00,WNW,294,0.0,0.0,78,0.00,,---,0.00,VWS V14.00,2013-09-09 14:35:00,
2013-09-09 09:40:00,77.2,69.4,30.01,WNW,294,0.0,0.0,77,0.00,,---,0.00,VWS V14.00,2013-09-09 14:40:00,
2013-09-09 09:45:00,77.7,69.5,30.00,WNW,294,0.0,0.0,76,0.00,,---,0.00,VWS V14.00,2013-09-09 14:45:00,
2013-09-09 09:50:00,78.3,69.7,30.01,WNW,294,0.0,0.0,75,0.00,,---,0.00,VWS V14.00,2013-09-09 14:50:00,
2013-09-09 09:55:00,78.8,70.2,30.01,WNW,294,0.0,0.0,75,0.00,,---,0.00,VWS V14.00,2013-09-09 14:55:00,
2013-09-09 10:00:00,79.8,70.0,30.00,WNW,294,0.0,0.0,72,0.00,,---,0.00,VWS V14.00,2013-09-09 15:00:00,
2013-09-09 10:05:00,80.3,69.6,30.00,WNW,294,0.0,0.0,70,0.00,,---,0.00,VWS V14.00,2013-09-09 15:05:00,
2013-09-09 10:10:00,80.9,70.2,30.00,WNW,294,0.0,0.0,70,0.00,,---,0.00,VWS V14.00,2013-09-09 15:10:00,
2013-09-09 10:15:00,81.4,69.8,30.00,WNW,294,0.0,0.0,68,0.00,,---,0.00,VWS V14.00,2013-09-09 15:15:00,
2013-09-09 10:20:00,82.0,69.5,30.00,WNW,294,0.0,0.0,66,0.00,,---,0.00,VWS V14.00,2013-09-09 15:20:00,
2013-09-09 10:25:00,82.4,70.3,30.00,WNW,294,0.0,0.0,67,0.00,,---,0.00,VWS V14.00,2013-09-09 15:25:00,
2013-09-09 10:30:00,82.8,68.9,30.00,WNW,294,0.0,0.0,63,0.00,,---,0.00,VWS V14.00,2013-09-09 15:30:00,
2013-09-09 10:35:00,83.0,69.6,30.00,WNW,294,0.0,0.0,64,0.00,,---,0.00,VWS V14.00,2013-09-09 15:35:00,
2013-09-09 10:40:00,83.6,70.6,30.00,WNW,294,0.0,0.0,65,0.00,,---,0.00,VWS V14.00,2013-09-09 15:40:00,
2013-09-09 10:45:00,83.8,68.9,30.00,WNW,294,0.0,0.0,61,0.00,,---,0.00,VWS V14.00,2013-09-09 15:45:00,
2013-09-09 10:50:00,84.0,69.1,30.00,WNW,294,0.0,0.0,61,0.00,,---,0.00,VWS V14.00,2013-09-09 15:50:00,
2013-09-09 10:55:00,84.5,68.1,30.00,WNW,294,0.0,0.0,58,0.00,,---,0.00,VWS V14.00,2013-09-09 15:55:00,
2013-09-09 11:00:00,84.5,68.6,30.00,WNW,294,0.0,0.0,59,0.00,,---,0.00,VWS V14.00,2013-09-09 16:00:00,
2013-09-09 11:05:00,84.5,68.6,30.00,WNW,294,0.0,0.0,59,0.00,,---,0.00,VWS V14.00,2013-09-09 16:05:00,
2013-09-09 11:10:00,84.9,68.0,30.00,WNW,294,0.0,0.0,57,0.00,,---,0.00,VWS V14.00,2013-09-09 16:10:00,
2013-09-09 11:15:00,85.5,68.0,30.00,WNW,294,0.0,0.0,56,0.00,,---,0.00,VWS V14.00,2013-09-09 16:15:00,
2013-09-09 11:20:00,86.1,68.1,30.00,WNW,294,0.0,0.0,55,0.00,,---,0.00,VWS V14.00,2013-09-09 16:20:00,
2013-09-09 11:25:00,86.1,68.1,30.00,WNW,294,0.0,0.0,55,0.00,,---,0.00,VWS V14.00,2013-09-09 16:25:00,
2013-09-09 11:30:00,85.9,67.3,30.00,WNW,294,0.0,0.0,54,0.00,,---,0.00,VWS V14.00,2013-09-09 16:30:00,
2013-09-09 11:35:00,86.5,66.8,30.00,WNW,294,0.0,0.0,52,0.00,,---,0.00,VWS V14.00,2013-09-09 16:35:00,
2013-09-09 11:40:00,87.0,66.7,30.00,WNW,294,0.0,0.0,51,0.00,,---,0.00,VWS V14.00,2013-09-09 16:40:00,
2013-09-09 11:45:00,87.8,68.0,29.99,WNW,294,0.0,0.0,52,0.00,,---,0.00,VWS V14.00,2013-09-09 16:45:00,
2013-09-09 11:50:00,88.2,66.7,30.00,WNW,294,0.0,0.0,49,0.00,,---,0.00,VWS V14.00,2013-09-09 16:50:00,
2013-09-09 11:55:00,88.0,67.6,29.99,WNW,294,0.0,0.0,51,0.00,,---,0.00,VWS V14.00,2013-09-09 16:55:00,
2013-09-09 12:00:00,88.0,67.1,29.99,WNW,294,0.0,0.0,50,0.00,,---,0.00,VWS V14.00,2013-09-09 17:00:00,
2013-09-09 12:05:00,87.6,66.1,29.99,WNW,294,0.0,0.0,49,0.00,,---,0.00,VWS V14.00,2013-09-09 17:05:00,
2013-09-09 12:10:00,87.8,67.4,29.99,WNW,294,0.0,0.0,51,0.00,,---,0.00,VWS V14.00,2013-09-09 17:10:00,
2013-09-09 12:15:00,88.2,66.7,29.99,WNW,294,0.0,0.0,49,0.00,,---,0.00,VWS V14.00,2013-09-09 17:15:00,
2013-09-09 12:20:00,88.6,66.4,29.99,WNW,294,0.0,0.0,48,0.00,,---,0.00,VWS V14.00,2013-09-09 17:20:00,
2013-09-09 12:25:00,88.4,65.6,29.99,WNW,294,0.0,0.0,47,0.00,,---,0.00,VWS V14.00,2013-09-09 17:25:00,
2013-09-09 12:30:00,88.4,65.6,29.99,WNW,294,0.0,0.0,47,0.00,,---,0.00,VWS V14.00,2013-09-09 17:30:00,
2013-09-09 12:35:00,88.8,65.4,29.99,WNW,294,0.0,0.0,46,0.00,,---,0.00,VWS V14.00,2013-09-09 17:35:00,
2013-09-09 12:40:00,88.6,64.6,29.99,WNW,294,0.0,0.0,45,0.00,,---,0.00,VWS V14.00,2013-09-09 17:40:00,
2013-09-09 12:45:00,89.3,63.9,29.99,WNW,294,0.0,0.0,43,0.00,,---,0.00,VWS V14.00,2013-09-09 17:45:00,
2013-09-09 12:50:00,89.9,65.1,29.99,WNW,290,4.0,4.0,44,0.00,,---,0.00,VWS V14.00,2013-09-09 17:50:00,
2013-09-09 12:55:00,89.9,64.4,29.98,WNW,290,2.0,3.0,43,0.00,,---,0.00,VWS V14.00,2013-09-09 17:55:00,
2013-09-09 13:00:00,90.1,65.3,29.98,WNW,290,0.0,5.0,44,0.00,,---,0.00,VWS V14.00,2013-09-09 18:00:00,
2013-09-09 13:04:00,89.7,65.6,29.98,WNW,293,5.0,10.0,45,0.00,,---,0.00,VWS V14.00,2013-09-09 18:04:00,
2013-09-09 13:09:00,89.9,64.4,29.98,WNW,297,5.0,6.0,43,0.00,,---,0.00,VWS V14.00,2013-09-09 18:09:00,
2013-09-09 13:14:00,90.3,66.1,29.98,WNW,293,3.0,6.0,45,0.00,,---,0.00,VWS V14.00,2013-09-09 18:14:00,
2013-09-09 13:19:00,90.1,64.6,29.98,WNW,292,13.0,13.0,43,0.00,,---,0.00,VWS V14.00,2013-09-09 18:19:00,
2013-09-09 13:24:00,90.1,63.9,29.98,SE,141,4.0,5.0,42,0.00,,---,0.00,VWS V14.00,2013-09-09 18:24:00,
2013-09-09 13:29:00,90.7,64.5,29.97,SSE,152,1.0,10.0,42,0.00,,---,0.00,VWS V14.00,2013-09-09 18:29:00,
2013-09-09 13:34:00,91.0,64.1,29.97,SSE,156,11.0,13.0,41,0.00,,---,0.00,VWS V14.00,2013-09-09 18:34:00,
2013-09-09 13:39:00,91.2,64.2,29.97,SE,138,9.0,15.0,41,0.00,,---,0.00,VWS V14.00,2013-09-09 18:39:00,
2013-09-09 13:44:00,90.7,63.1,29.97,SSE,147,10.0,12.0,40,0.00,,---,0.00,VWS V14.00,2013-09-09 18:44:00,
2013-09-09 13:49:00,90.7,61.6,29.97,SE,142,5.0,10.0,38,0.00,,---,0.00,VWS V14.00,2013-09-09 18:49:00,
2013-09-09 13:54:00,91.0,62.6,29.97,SSE,150,7.0,9.0,39,0.00,,---,0.00,VWS V14.00,2013-09-09 18:54:00,
2013-09-09 13:59:00,91.2,62.1,29.98,SE,146,3.0,9.0,38,0.00,,---,0.00,VWS V14.00,2013-09-09 18:59:00,
2013-09-09 14:04:00,91.0,63.3,29.97,SSE,148,0.0,2.0,40,0.00,,---,0.00,VWS V14.00,2013-09-09 19:04:00,
2013-09-09 14:09:00,91.0,62.6,29.97,SSE,159,10.0,16.0,39,0.00,,---,0.00,VWS V14.00,2013-09-09 19:09:00,
2013-09-09 14:14:00,91.2,62.8,29.97,SSE,157,4.0,11.0,39,0.00,,---,0.00,VWS V14.00,2013-09-09 19:14:00,
2013-09-09 14:19:00,91.2,63.5,29.96,SE,136,10.0,10.0,40,0.00,,---,0.00,VWS V14.00,2013-09-09 19:19:00,
2013-09-09 14:24:00,91.2,62.8,29.96,SE,140,6.0,13.0,39,0.00,,---,0.00,VWS V14.00,2013-09-09 19:24:00,
2013-09-09 14:29:00,91.0,61.9,29.96,SSE,168,4.0,6.0,38,0.00,,---,0.00,VWS V14.00,2013-09-09 19:29:00,
2013-09-09 14:34:00,91.2,62.1,29.96,SSE,148,0.0,8.0,38,0.00,,---,0.00,VWS V14.00,2013-09-09 19:34:00,
2013-09-09 14:39:00,91.2,63.5,29.96,SSE,160,5.0,11.0,40,0.00,,---,0.00,VWS V14.00,2013-09-09 19:39:00,
2013-09-09 14:44:00,91.4,63.0,29.96,South,182,1.0,7.0,39,0.00,,---,0.00,VWS V14.00,2013-09-09 19:44:00,
2013-09-09 14:49:00,91.4,62.2,29.96,SSE,152,9.0,14.0,38,0.00,,---,0.00,VWS V14.00,2013-09-09 19:49:00,
2013-09-09 14:54:00,91.4,62.2,29.96,SSE,153,7.0,7.0,38,0.00,,---,0.00,VWS V14.00,2013-09-09 19:54:00,
2013-09-09 14:59:00,91.4,63.0,29.95,SSE,161,1.0,6.0,39,0.00,,---,0.00,VWS V14.00,2013-09-09 19:59:00,
2013-09-09 15:04:00,91.2,61.3,29.95,SE,146,11.0,12.0,37,0.00,,---,0.00,VWS V14.00,2013-09-09 20:04:00,
2013-09-09 15:09:00,91.4,62.2,29.95,South,169,1.0,7.0,38,0.00,,---,0.00,VWS V14.00,2013-09-09 20:09:00,
2013-09-09 15:14:00,91.4,61.5,29.94,SSE,167,10.0,10.0,37,0.00,,---,0.00,VWS V14.00,2013-09-09 20:14:00,
2013-09-09 15:19:00,91.2,60.5,29.94,SE,146,5.0,13.0,36,0.00,,---,0.00,VWS V14.00,2013-09-09 20:19:00,
2013-09-09 15:24:00,91.4,62.2,29.94,SSE,155,6.0,11.0,38,0.00,,---,0.00,VWS V14.00,2013-09-09 20:24:00,
2013-09-09 15:29:00,91.4,62.2,29.94,SSE,147,1.0,10.0,38,0.00,,---,0.00,VWS V14.00,2013-09-09 20:29:00,
2013-09-09 15:34:00,91.6,61.7,29.94,SSE,154,3.0,10.0,37,0.00,,---,0.00,VWS V14.00,2013-09-09 20:34:00,
2013-09-09 15:39:00,91.4,59.9,29.94,SE,143,11.0,12.0,35,0.00,,---,0.00,VWS V14.00,2013-09-09 20:39:00,
2013-09-09 15:44:00,91.4,60.7,29.94,SSE,147,6.0,8.0,36,0.00,,---,0.00,VWS V14.00,2013-09-09 20:44:00,
2013-09-09 15:49:00,91.6,60.1,29.94,South,171,2.0,7.0,35,0.00,,---,0.00,VWS V14.00,2013-09-09 20:49:00,
2013-09-09 15:54:00,91.4,61.5,29.94,South,185,5.0,6.0,37,0.00,,---,0.00,VWS V14.00,2013-09-09 20:54:00,
2013-09-09 15:59:00,91.6,61.7,29.93,SSE,154,6.0,7.0,37,0.00,,---,0.00,VWS V14.00,2013-09-09 20:59:00,
2013-09-09 16:04:00,91.6,62.4,29.93,SSE,155,1.0,3.0,38,0.00,,---,0.00,VWS V14.00,2013-09-09 21:04:00,
2013-09-09 16:09:00,91.4,62.2,29.93,SSW,194,1.0,7.0,38,0.00,,---,0.00,VWS V14.00,2013-09-09 21:09:00,
2013-09-09 16:14:00,91.4,62.2,29.93,SSE,164,10.0,10.0,38,0.00,,---,0.00,VWS V14.00,2013-09-09 21:14:00,
2013-09-09 16:19:00,91.2,62.8,29.93,SSE,163,5.0,6.0,39,0.00,,---,0.00,VWS V14.00,2013-09-09 21:19:00,
2013-09-09 16:24:00,91.4,62.2,29.93,SSE,159,4.0,4.0,38,0.00,,---,0.00,VWS V14.00,2013-09-09 21:24:00,
2013-09-09 16:29:00,91.2,62.1,29.93,SSE,153,3.0,3.0,38,0.00,,---,0.00,VWS V14.00,2013-09-09 21:29:00,
2013-09-09 16:34:00,91.4,62.2,29.93,SSE,153,4.0,4.0,38,0.00,,---,0.00,VWS V14.00,2013-09-09 21:34:00,
2013-09-09 16:39:00,91.2,61.3,29.93,South,181,3.0,12.0,37,0.00,,---,0.00,VWS V14.00,2013-09-09 21:39:00,
2013-09-09 16:44:00,91.2,61.3,29.93,South,185,4.0,4.0,37,0.00,,---,0.00,VWS V14.00,2013-09-09 21:44:00,
2013-09-09 16:49:00,91.2,61.3,29.93,South,175,4.0,4.0,37,0.00,,---,0.00,VWS V14.00,2013-09-09 21:49:00,
2013-09-09 16:54:00,91.2,61.3,29.93,South,173,5.0,5.0,37,0.00,,---,0.00,VWS V14.00,2013-09-09 21:54:00,
2013-09-09 16:59:00,91.0,61.1,29.93,South,173,5.0,5.0,37,0.00,,---,0.00,VWS V14.00,2013-09-09 21:59:00,
2013-09-09 17:04:00,91.0,61.9,29.93,SSE,155,10.0,10.0,38,0.00,,---,0.00,VWS V14.00,2013-09-09 22:04:00,
2013-09-09 17:09:00,91.0,61.9,29.93,SSE,159,2.0,4.0,38,0.00,,---,0.00,VWS V14.00,2013-09-09 22:09:00,
2013-09-09 17:14:00,91.0,61.9,29.93,SSE,163,0.0,1.0,38,0.00,,---,0.00,VWS V14.00,2013-09-09 22:14:00,
2013-09-09 17:19:00,91.0,61.1,29.93,South,188,7.0,7.0,37,0.00,,---,0.00,VWS V14.00,2013-09-09 22:19:00,
2013-09-09 17:24:00,91.0,61.9,29.93,South,184,1.0,3.0,38,0.00,,---,0.00,VWS V14.00,2013-09-09 22:24:00,
2013-09-09 17:29:00,90.7,61.6,29.92,SSE,153,5.0,5.0,38,0.00,,---,0.00,VWS V14.00,2013-09-09 22:29:00,
2013-09-09 17:34:00,90.5,61.5,29.93,SSE,161,5.0,5.0,38,0.00,,---,0.00,VWS V14.00,2013-09-09 22:34:00,
2013-09-09 17:39:00,90.5,61.5,29.93,SSE,157,5.0,5.0,38,0.00,,---,0.00,VWS V14.00,2013-09-09 22:39:00,
2013-09-09 17:44:00,90.3,61.3,29.93,SSE,157,3.0,4.0,38,0.00,,---,0.00,VWS V14.00,2013-09-09 22:44:00,
2013-09-09 17:49:00,90.3,62.0,29.93,SSE,157,1.0,1.0,39,0.00,,---,0.00,VWS V14.00,2013-09-09 22:49:00,
2013-09-09 17:54:00,90.1,61.8,29.93,SSE,157,2.0,3.0,39,0.00,,---,0.00,VWS V14.00,2013-09-09 22:54:00,
2013-09-09 17:59:00,90.1,63.2,29.93,SSE,157,1.0,1.0,41,0.00,,---,0.00,VWS V14.00,2013-09-09 22:59:00,
2013-09-09 18:04:00,89.9,62.4,29.93,SSE,157,0.0,1.0,40,0.00,,---,0.00,VWS V14.00,2013-09-09 23:04:00,
2013-09-09 18:09:00,89.7,62.9,29.93,SSE,157,4.0,4.0,41,0.00,,---,0.00,VWS V14.00,2013-09-09 23:09:00,
2013-09-09 18:14:00,89.7,62.9,29.93,SSE,157,0.0,0.0,41,0.00,,---,0.00,VWS V14.00,2013-09-09 23:14:00,
2013-09-09 18:19:00,89.3,63.2,29.93,SSE,157,0.0,0.0,42,0.00,,---,0.00,VWS V14.00,2013-09-09 23:19:00,
2013-09-09 18:24:00,89.3,63.2,29.92,SSE,157,0.0,0.0,42,0.00,,---,0.00,VWS V14.00,2013-09-09 23:24:00,
2013-09-09 18:29:00,88.8,63.4,29.92,SSE,157,0.0,0.0,43,0.00,,---,0.00,VWS V14.00,2013-09-09 23:29:00,
2013-09-09 18:34:00,88.6,63.9,29.92,SSE,157,0.0,0.0,44,0.00,,---,0.00,VWS V14.00,2013-09-09 23:34:00,
2013-09-09 18:39:00,88.2,64.2,29.92,SSE,157,0.0,0.0,45,0.00,,---,0.00,VWS V14.00,2013-09-09 23:39:00,
2013-09-09 18:44:00,88.0,64.7,29.92,SSE,157,0.0,0.0,46,0.00,,---,0.00,VWS V14.00,2013-09-09 23:44:00,
2013-09-09 18:49:00,87.6,65.5,29.92,SSE,157,0.0,0.0,48,0.00,,---,0.00,VWS V14.00,2013-09-09 23:49:00,
2013-09-09 18:54:00,87.2,65.1,29.92,SSE,157,0.0,0.0,48,0.00,,---,0.00,VWS V14.00,2013-09-09 23:54:00,
2013-09-09 18:59:00,86.7,65.9,29.92,SSE,157,0.0,0.0,50,0.00,,---,0.00,VWS V14.00,2013-09-09 23:59:00,
2013-09-09 19:04:00,86.3,66.6,29.92,SSE,157,0.0,0.0,52,0.00,,---,0.00,VWS V14.00,2013-09-10 00:04:00,
2013-09-09 19:09:00,85.7,67.2,29.92,SSE,157,0.0,0.0,54,0.00,,---,0.00,VWS V14.00,2013-09-10 00:09:00,
2013-09-09 19:14:00,85.3,67.3,29.93,SSE,157,0.0,0.0,55,0.00,,---,0.00,VWS V14.00,2013-09-10 00:14:00,
2013-09-09 19:19:00,84.9,67.5,29.93,SSE,157,0.0,0.0,56,0.00,,---,0.00,VWS V14.00,2013-09-10 00:19:00,
2013-09-09 19:24:00,84.5,67.1,29.93,SSE,157,0.0,0.0,56,0.00,,---,0.00,VWS V14.00,2013-09-10 00:24:00,
2013-09-09 19:29:00,84.1,67.2,29.93,SSE,157,0.0,0.0,57,0.00,,---,0.00,VWS V14.00,2013-09-10 00:29:00,
2013-09-09 19:34:00,83.6,67.3,29.93,SSE,157,0.0,0.0,58,0.00,,---,0.00,VWS V14.00,2013-09-10 00:34:00,
2013-09-09 19:39:00,83.2,67.9,29.93,SSE,157,0.0,0.0,60,0.00,,---,0.00,VWS V14.00,2013-09-10 00:39:00,
2013-09-09 19:44:00,82.6,67.8,29.93,SSE,157,0.0,0.0,61,0.00,,---,0.00,VWS V14.00,2013-09-10 00:44:00,
2013-09-09 19:49:00,82.2,67.9,29.93,SSE,157,0.0,0.0,62,0.00,,---,0.00,VWS V14.00,2013-09-10 00:49:00,
2013-09-09 19:54:00,81.6,67.8,29.93,SSE,157,0.0,0.0,63,0.00,,---,0.00,VWS V14.00,2013-09-10 00:54:00,
2013-09-09 19:59:00,81.2,67.9,29.93,SSE,157,0.0,1.0,64,0.00,,---,0.00,VWS V14.00,2013-09-10 00:59:00,
2013-09-09 20:04:00,80.9,68.0,29.93,SSE,157,0.0,0.0,65,0.00,,---,0.00,VWS V14.00,2013-09-10 01:04:00,
2013-09-09 20:09:00,80.5,68.1,29.93,SSE,157,0.0,0.0,66,0.00,,---,0.00,VWS V14.00,2013-09-10 01:09:00,
2013-09-09 20:14:00,80.1,68.2,29.93,SSE,157,0.0,0.0,67,0.00,,---,0.00,VWS V14.00,2013-09-10 01:14:00,
2013-09-09 20:19:00,79.8,68.3,29.93,SSE,157,0.0,0.0,68,0.00,,---,0.00,VWS V14.00,2013-09-10 01:19:00,
2013-09-09 20:24:00,79.6,68.1,29.93,SSE,157,0.0,0.0,68,0.00,,---,0.00,VWS V14.00,2013-09-10 01:24:00,
2013-09-09 20:29:00,79.2,67.7,29.94,SSE,157,0.0,0.0,68,0.00,,---,0.00,VWS V14.00,2013-09-10 01:29:00,
2013-09-09 20:34:00,79.4,68.3,29.94,SSE,157,0.0,0.0,69,0.00,,---,0.00,VWS V14.00,2013-09-10 01:34:00,
2013-09-09 20:39:00,79.4,68.8,29.94,SSE,157,0.0,0.0,70,0.00,,---,0.00,VWS V14.00,2013-09-10 01:39:00,
2013-09-09 20:44:00,79.0,68.8,29.95,SSE,157,0.0,0.0,71,0.00,,---,0.00,VWS V14.00,2013-09-10 01:44:00,
2013-09-09 20:49:00,78.6,68.8,29.95,SSE,157,0.0,0.0,72,0.00,,---,0.00,VWS V14.00,2013-09-10 01:49:00,
2013-09-09 20:54:00,78.1,68.8,29.95,SSE,157,0.0,0.0,73,0.00,,---,0.00,VWS V14.00,2013-09-10 01:54:00,
2013-09-09 20:58:00,77.7,68.8,29.95,SSE,157,0.0,0.0,74,0.00,,---,0.00,VWS V14.00,2013-09-10 01:58:00,
2013-09-09 21:03:00,77.4,68.9,29.95,SSE,157,0.0,0.0,75,0.00,,---,0.00,VWS V14.00,2013-09-10 02:03:00,
2013-09-09 21:08:00,76.8,68.7,29.95,SSE,157,0.0,0.0,76,0.00,,---,0.00,VWS V14.00,2013-09-10 02:08:00,
2013-09-09 21:13:00,76.5,69.1,29.96,SSE,157,0.0,0.0,78,0.00,,---,0.00,VWS V14.00,2013-09-10 02:13:00,
2013-09-09 21:18:00,76.3,69.3,29.96,SSE,157,0.0,0.0,79,0.00,,---,0.00,VWS V14.00,2013-09-10 02:18:00,
2013-09-09 21:23:00,76.3,70.1,29.96,SSE,157,0.0,0.0,81,0.00,,---,0.00,VWS V14.00,2013-09-10 02:23:00,
2013-09-09 21:28:00,76.0,69.4,29.96,SSE,157,0.0,0.0,80,0.00,,---,0.00,VWS V14.00,2013-09-10 02:28:00,
2013-09-09 21:33:00,75.8,69.2,29.97,SSE,157,0.0,0.0,80,0.00,,---,0.00,VWS V14.00,2013-09-10 02:33:00,
2013-09-09 21:38:00,75.8,69.6,29.97,SSE,157,0.0,0.0,81,0.00,,---,0.00,VWS V14.00,2013-09-10 02:38:00,
2013-09-09 21:43:00,75.6,69.4,29.97,SSE,157,0.0,0.0,81,0.00,,---,0.00,VWS V14.00,2013-09-10 02:43:00,
2013-09-09 21:48:00,75.6,69.4,29.97,SSE,157,0.0,0.0,81,0.00,,---,0.00,VWS V14.00,2013-09-10 02:48:00,
2013-09-09 21:53:00,75.4,69.2,29.97,SSE,157,0.0,0.0,81,0.00,,---,0.00,VWS V14.00,2013-09-10 02:53:00,
2013-09-09 21:58:00,75.3,69.4,29.97,SSE,157,0.0,0.0,82,0.00,,---,0.00,VWS V14.00,2013-09-10 02:58:00,
2013-09-09 22:03:00,75.1,69.2,29.97,SSE,157,0.0,0.0,82,0.00,,---,0.00,VWS V14.00,2013-09-10 03:03:00,
2013-09-09 22:08:00,74.9,69.0,29.97,SSE,157,0.0,0.0,82,0.00,,---,0.00,VWS V14.00,2013-09-10 03:08:00,
2013-09-09 22:13:00,74.7,69.2,29.97,SSE,157,0.0,0.0,83,0.00,,---,0.00,VWS V14.00,2013-09-10 03:13:00,
2013-09-09 22:18:00,74.6,68.8,29.97,SSE,157,0.0,0.0,82,0.00,,---,0.00,VWS V14.00,2013-09-10 03:18:00,
2013-09-09 22:23:00,74.4,68.6,29.97,SSE,157,0.0,0.0,82,0.00,,---,0.00,VWS V14.00,2013-09-10 03:23:00,
2013-09-09 22:28:00,74.2,68.7,29.97,SSE,157,0.0,0.0,83,0.00,,---,0.00,VWS V14.00,2013-09-10 03:28:00,
2013-09-09 22:33:00,74.0,68.5,29.97,SSE,157,0.0,0.0,83,0.00,,---,0.00,VWS V14.00,2013-09-10 03:33:00,
2013-09-09 22:38:00,73.9,68.8,29.97,SSE,157,0.0,0.0,84,0.00,,---,0.00,VWS V14.00,2013-09-10 03:38:00,
2013-09-09 22:43:00,73.5,68.4,29.98,SSE,157,0.0,0.0,84,0.00,,---,0.00,VWS V14.00,2013-09-10 03:43:00,
2013-09-09 22:48:00,73.5,68.7,29.98,SSE,157,0.0,0.0,85,0.00,,---,0.00,VWS V14.00,2013-09-10 03:48:00,
2013-09-09 22:53:00,73.3,68.5,29.98,SSE,157,0.0,0.0,85,0.00,,---,0.00,VWS V14.00,2013-09-10 03:53:00,
2013-09-09 22:58:00,73.2,68.4,29.98,SSE,157,0.0,0.0,85,0.00,,---,0.00,VWS V14.00,2013-09-10 03:58:00,
2013-09-09 23:01:00,73.2,68.8,29.98,SSE,157,0.0,0.0,86,0.00,,---,0.00,VWS V14.00,2013-09-10 04:01:00,
2013-09-09 23:06:00,73.0,68.6,29.98,SSE,157,0.0,0.0,86,0.00,,---,0.00,VWS V14.00,2013-09-10 04:06:00,
2013-09-09 23:11:00,73.0,68.6,29.99,SSE,157,0.0,0.0,86,0.00,,---,0.00,VWS V14.00,2013-09-10 04:11:00,
2013-09-09 23:16:00,72.8,68.7,29.98,SSE,157,0.0,0.0,87,0.00,,---,0.00,VWS V14.00,2013-09-10 04:16:00,
2013-09-09 23:21:00,72.7,68.6,29.99,SSE,157,0.0,0.0,87,0.00,,---,0.00,VWS V14.00,2013-09-10 04:21:00,
2013-09-09 23:26:00,72.5,68.4,29.99,SSE,157,0.0,0.0,87,0.00,,---,0.00,VWS V14.00,2013-09-10 04:26:00,
2013-09-09 23:31:00,72.3,68.2,29.99,SSE,157,0.0,0.0,87,0.00,,---,0.00,VWS V14.00,2013-09-10 04:31:00,
2013-09-09 23:36:00,72.1,68.3,29.99,SSE,157,0.0,0.0,88,0.00,,---,0.00,VWS V14.00,2013-09-10 04:36:00,
2013-09-09 23:41:00,72.1,68.3,29.99,SSE,157,0.0,0.0,88,0.00,,---,0.00,VWS V14.00,2013-09-10 04:41:00,
2013-09-09 23:46:00,72.0,68.3,29.99,SSE,157,0.0,0.0,88,0.00,,---,0.00,VWS V14.00,2013-09-10 04:46:00,
2013-09-09 23:51:00,72.0,68.3,29.99,SSE,157,0.0,0.0,88,0.00,,---,0.00,VWS V14.00,2013-09-10 04:51:00,
2013-09-09 23:56:00,71.8,68.1,29.99,SSE,157,0.0,0.0,88,0.00,,---,0.00,VWS V14.00,2013-09-10 04:56:00,